Location: Baix
(44.7118°N, 4.7648°E)
Time: 17:29:37
(UTC+00:00)

S-56A Canister/Altair - All Passes

Search period start: 04 December 2020 00:00
Search period end: 14 December 2020 00:00
Orbit: 632 x 2500 km, 38.9° (Epoch: 03 December)

Date Brightness Start Highest point End Pass type
(mag) Time Alt. Az. Time Alt. Az. Time Alt. Az.
04 Dec - 14:30:39 10° S 14:39:01 18° SE 14:46:31 10° E daylight
04 Dec - 16:30:53 10° SW 16:43:40 41° SSE 16:53:23 10° E visible
04 Dec - 18:36:03 10° WSW 18:48:46 60° S 18:57:20 10° E visible
04 Dec - 20:42:49 10° W 20:53:23 56° SSW 21:00:20 10° ESE visible
04 Dec - 22:49:51 10° W 22:56:38 27° SW 23:01:40 10° SSE visible
05 Dec - 13:58:28 10° SSE 14:05:52 16° SE 14:12:43 10° ESE daylight
05 Dec - 15:57:34 10° SSW 16:10:25 39° SSE 16:20:32 10° E daylight
05 Dec - 18:02:22 10° WSW 18:15:36 60° S 18:24:47 10° E visible
05 Dec - 20:09:06 10° W 20:20:29 60° S 20:27:58 10° ESE visible
05 Dec - 22:16:10 10° W 22:24:03 32° SW 22:29:40 10° SSE visible
06 Dec - 13:26:43 10° SSE 13:32:44 14° SE 13:38:29 10° ESE daylight
06 Dec - 15:24:22 10° SSW 15:37:08 36° SSE 15:47:36 10° E daylight
06 Dec - 17:28:42 10° WSW 17:42:23 59° SSE 17:52:09 10° E visible
06 Dec - 19:35:21 10° W 19:47:30 62° S 19:55:32 10° ESE visible
06 Dec - 21:42:28 10° W 21:51:25 37° SSW 21:57:36 10° SSE visible
07 Dec - 12:55:51 10° SE 12:59:39 11° SE 13:03:22 10° ESE daylight
07 Dec - 14:51:16 10° SSW 15:03:50 34° SE 15:14:33 10° E daylight
07 Dec - 16:55:05 10° WSW 17:09:06 57° SSE 17:19:26 10° E visible
07 Dec - 19:01:35 10° W 19:14:26 64° S 19:23:03 10° ESE visible
07 Dec - 21:08:44 10° W 21:18:40 42° SSW 21:25:26 10° SE visible
07 Dec - 23:17:57 10° WSW 23:21:01 12° SW 23:23:42 10° SSW night (unlit)
08 Dec - 14:18:18 10° SSW 14:30:32 32° SE 14:41:22 10° E daylight
08 Dec - 16:21:32 10° SW 16:35:45 56° SSE 16:46:41 10° E visible
08 Dec - 18:27:49 10° W 18:41:17 66° S 18:50:32 10° ESE visible
08 Dec - 20:34:58 10° W 20:45:51 47° SSW 20:53:12 10° SE visible
08 Dec - 22:43:24 10° W 22:48:30 16° SW 22:52:41 10° SSW visible
09 Dec - 13:45:29 10° SSW 13:57:15 29° SE 14:08:03 10° E daylight
09 Dec - 15:48:04 10° SW 16:02:22 54° SSE 16:13:49 10° E daylight
09 Dec - 17:54:03 10° WSW 18:08:03 67° S 18:17:55 10° E visible
09 Dec - 20:01:11 10° W 20:12:56 52° SSW 20:20:53 10° SE visible
09 Dec - 22:09:13 10° W 22:15:58 21° SW 22:21:10 10° S visible
10 Dec - 13:12:50 10° S 13:23:59 26° SE 13:34:34 10° E daylight
10 Dec - 15:14:41 10° SW 15:28:58 51° SSE 15:40:52 10° E daylight
10 Dec - 17:20:19 10° WSW 17:34:43 67° S 17:45:15 10° E visible
10 Dec - 19:27:23 10° W 19:39:57 56° SSW 19:48:29 10° SE visible
10 Dec - 21:35:11 10° W 21:43:20 25° SW 21:49:24 10° S visible
11 Dec - 12:40:22 10° S 12:50:45 23° SE 13:00:55 10° E daylight
11 Dec - 14:41:24 10° SW 14:55:31 49° SSE 15:07:50 10° E daylight
11 Dec - 16:46:38 10° WSW 17:01:21 67° S 17:12:30 10° E visible
11 Dec - 18:53:35 10° W 19:06:50 60° SSW 19:16:02 10° ESE visible
11 Dec - 21:01:13 10° W 21:10:37 30° SW 21:17:28 10° SSE visible
12 Dec - 12:08:08 10° S 12:17:33 21° SE 12:27:02 10° E daylight
12 Dec - 14:08:15 10° SW 14:22:05 46° SSE 14:34:42 10° E daylight
12 Dec - 16:13:01 10° WSW 16:27:54 66° S 16:39:40 10° E visible
12 Dec - 18:19:47 10° W 18:33:39 63° SSW 18:43:29 10° ESE visible
12 Dec - 20:27:18 10° W 20:37:50 35° SW 20:45:24 10° SSE visible
13 Dec - 11:36:12 10° SSE 11:44:25 18° SE 11:52:50 10° E daylight
13 Dec - 13:35:13 10° SSW 13:48:39 43° SSE 14:01:27 10° E daylight
13 Dec - 15:39:28 10° WSW 15:54:24 65° S 16:06:46 10° E daylight
13 Dec - 17:46:00 10° W 18:00:22 65° S 18:10:52 10° ESE visible
13 Dec - 19:53:24 10° W 20:04:57 40° SW 20:13:12 10° SSE visible
13 Dec - 22:04:28 10° WSW 22:07:19 11° SW 22:09:55 10° SW visible
